Regional Weather Roundup
Issued by NWS New Orleans/Baton Rouge, LA

Home | Current Version | Previous Version | Graphics & Text | Print | Product List | Glossary On
Versions: 1 2 3 4 5 6 7 8 9 10 11 12 13 14 15 16 17 18 19 20 21 22 23 24 25 26 27 28 29 30 31 32 33 34 35 36 37 38 39 40 41 42 43 44 45 46 47 48 49 50
260
ASUS44 KLIX 221201
RWRLIX
NEW ORLEANS REGIONAL WEATHER ROUNDUP
NATIONAL WEATHER SERVICE NEW ORLEANS LA
600 AM CST SAT NOV 22 2014

NOTE: "FAIR" INDICATES FEW OR NO CLOUDS BELOW 12,000 FEET WITH NO
      SIGNIFICANT WEATHER AND/OR OBSTRUCTIONS TO VISIBILITY.
      SKY/WX - SKY CONDITION AND SIGNIFICANT WEATHER.
      TMP - AIR TEMPERATURE.     DP    - DEWPOINT TEMPERATURE.
      RH  - RELATIVE HUMIDITY.   PRES  - PRESSURE.
      HI  - HEAT INDEX.          WCI   - WIND CHILL INDEX.

*  THESE STATIONS ARE NOT NWS OR FAA STATIONS AND ARE NOT UNDER
   NWS QUALITY CONTROL.

LAZ038-040-048-061>063-065>067-069-221300-
SOUTHEAST LOUISIANA

CITY           SKY/WX    TMP DP  RH WIND       PRES   REMARKS
N.O. AUDUBON   NOT AVBL
N.O. INTL ARPT PTCLDY    55  51  86 E7        30.20F
6HR MIN TEMP:  54; 6HR MAX TEMP:  57;

N.O. LAKEFRONT CLEAR     56  50  80 E13       30.21F
6HR MIN TEMP:  55; 6HR MAX TEMP:  57;

N.O. DOWNTOWN*   N/A     57  48  72 NE9       30.21S
6HR MIN TEMP:  57; 6HR MAX TEMP:  61;

SLIDELL        CLEAR     51  45  79 NE5       30.22S
6HR MIN TEMP:  46; 6HR MAX TEMP:  52;

BATON ROUGE    CLEAR     51  47  86 E8        30.20F
6HR MIN TEMP:  50; 6HR MAX TEMP:  55;

BOOTHVILLE     CLEAR     59  57  93 E5        30.20S
6HR MIN TEMP:  58; 6HR MAX TEMP:  62;

BELLE CHASSE   PTCLDY    55  51  86 NE9       30.20F
6HR MIN TEMP:  52; 6HR MAX TEMP:  57;

BOGALUSA*        N/A     43  40  89 CALM      30.26S FOG
6HR MIN TEMP:  43; 6HR MAX TEMP:  46;

NEW ROADS*       N/A     54  48  82 E3        30.21R
6HR MIN TEMP:  51; 6HR MAX TEMP:  55;

GONZALES*      NOT AVBL
HAMMOND*       CLEAR     52  46  82 E5        30.23S
HOUMA*         PTCLDY    54  52  94 NE7       30.19R
PORT FOURCHON* CLOUDY    63  59  88 E7        30.20S

$$

MSZ070-080>082-221300-
SOUTHERN MISSISSIPPI

CITY           SKY/WX    TMP DP  RH WIND       PRES   REMARKS
MCCOMB         CLEAR     51  43  74 E3        30.23S
6HR MIN TEMP:  50; 6HR MAX TEMP:  53;

GULFPORT       CLEAR     52  45  77 NE6       30.24S
6HR MIN TEMP:  46; 6HR MAX TEMP:  53;

BILOXI         NOT AVBL
PASCAGOULA     CLEAR     49  44  83 NE6       30.25F
6HR MIN TEMP:  41; 6HR MAX TEMP:  51;


$$

COASTAL OBSERVATIONS
LAKE AND NEARSHORE STATIONS

STATION/POSITION TIME  TEMP    WIND        PRES    WAVE
                       AIR SEA DIR/SP/G            HT/PER
                 (UTC) (F)     (DEG/KT/KT) (MB)    (FT/S)
PASCAGOULA       1100   54      60/ 11/ 14 1023.9
WAVELAND YACHT   1100   53      70/  6/  8 1022.8
GRAND ISLE       1100   62 61   80/  7/  9 1022.3
SOUTHWEST PASS   1100   69 72              1021.8
NEW CANAL        1100   55 53   70/ 10/ 11 1023.0
SHELL BEACH      1100   56 51   50/ 11/ 12 1022.8

OFFSHORE STATIONS

STATION/POSITION TIME  TEMP    WIND        PRES    WAVE
                       AIR SEA DIR/SP/G            HT/PER
                 (UTC) (F)     (DEG/KT/KT) (MB)    (FT/S)
64 S DAUPHIN ISL 1058   70 72   90/ 17/ 21 1023.1    6/ 8

$$




USA.gov is the U.S. government's official web portal to all federal, state and local government web resources and services.